,,Stat6,,Stat2,,Stat8,,Stat9,,Stat10,,Wind1,,Wind1,
time,status,PA1M_AVG,status,PR1M_SUM,status,RH1M_AVG,status,SR1M_AVG,status,TA1M_AVG,status,W1dAve1m,status,W1sAve1m,
2005-06-15, 00:00:01,VALID,916.745,VALID,0,VALID,94.8655,VALID,-0.0849042,VALID,20.7145,VALID,11,VALID,0.867006,
2005-06-15, 00:01:00,VALID,916.734,VALID,0,VALID,94.863,VALID,-0.0169808,VALID,20.7162,VALID,22,VALID,0.73266,
2005-06-15, 00:02:00,VALID,916.723,VALID,0,VALID,94.7981,VALID,0,VALID,20.7054,VALID,15,VALID,0.755149,
2005-06-15, 00:03:00,VALID,916.719,VALID,0,VALID,94.7536,VALID,0.0509425,VALID,20.7022,VALID,15,VALID,0.707667,
2005-06-15, 00:04:00,VALID,916.722,VALID,0,VALID,94.8553,VALID,0,VALID,20.693,VALID,16,VALID,0.961682,
2005-06-15, 00:05:00,VALID,916.718,VALID,0,VALID,94.8477,VALID,0,VALID,20.6898,VALID,13,VALID,1.6276,
2005-06-15, 00:06:00,VALID,916.736,VALID,0,VALID,94.8261,VALID,0.0169808,VALID,20.6861,VALID,15,VALID,1.56059,
2005-06-15, 00:07:00,VALID,916.747,VALID,0,VALID,94.7638,VALID,0.0509425,VALID,20.6957,VALID,18,VALID,1.5545,
2005-06-15, 00:08:00,VALID,916.753,VALID,0,VALID,94.704,VALID,0.0509425,VALID,20.7189,VALID,15,VALID,1.38893,
2005-06-15, 00:09:00,VALID,916.757,VALID,0,VALID,94.6799,VALID,0.0169808,VALID,20.7221,VALID,10,VALID,1.34413,
2005-06-15, 00:10:00,VALID,916.752,VALID,0,VALID,94.7523,VALID,0.0339617,VALID,20.7119,VALID,12,VALID,1.01598,
2005-06-15, 00:11:00,VALID,916.746,VALID,0,VALID,94.8503,VALID,0,VALID,20.7057,VALID,9,VALID,1.08479,
2005-06-15, 00:12:01,VALID,916.725,VALID,0,VALID,94.896,VALID,0,VALID,20.7025,VALID,8,VALID,0.983817,
2005-06-15, 00:13:00,VALID,916.706,VALID,0,VALID,94.8464,VALID,0,VALID,20.7189,VALID,351,VALID,1.28604,
2005-06-15, 00:14:01,VALID,916.7,VALID,0,VALID,94.9062,VALID,0.0169808,VALID,20.6965,VALID,351,VALID,1.22567,
2005-06-15, 00:15:00,VALID,916.689,VALID,0,VALID,95.0626,VALID,0,VALID,20.6804,VALID,358,VALID,0.750182,
2005-06-15, 00:16:01,VALID,916.684,VALID,0,VALID,95.13,VALID,-0.0679233,VALID,20.675,VALID,336,VALID,0.736852,
2005-06-15, 00:17:00,VALID,916.672,VALID,0,VALID,95.2178,VALID,-0.101885,VALID,20.675,VALID,355,VALID,1.00248,
2005-06-15, 00:18:01,VALID,916.664,VALID,0,VALID,95.1974,VALID,-0.0509425,VALID,20.6817,VALID,322,VALID,0.955915,
2005-06-15, 00:19:01,VALID,916.685,VALID,0,VALID,95.1707,VALID,-0.0849042,VALID,20.6852,VALID,7,VALID,0.628801,
2005-06-15, 00:20:00,VALID,916.696,VALID,0,VALID,95.3207,VALID,-0.101885,VALID,20.6747,VALID,360,VALID,0.888263,
2005-06-15, 00:21:01,VALID,916.677,VALID,0,VALID,95.3538,VALID,-0.0509425,VALID,20.6653,VALID,338,VALID,1.34032,
2005-06-15, 00:22:01,VALID,916.683,VALID,0,VALID,95.1542,VALID,-0.0849042,VALID,20.6976,VALID,335,VALID,1.26944,
2005-06-15, 00:23:00,VALID,916.68,VALID,0,VALID,95.0207,VALID,-0.0849042,VALID,20.7215,VALID,358,VALID,0.60061,
2005-06-15, 00:24:00,VALID,916.686,VALID,0,VALID,95.0957,VALID,-0.101885,VALID,20.714,VALID,359,VALID,0.607329,
2005-06-15, 00:25:00,VALID,916.663,VALID,0,VALID,95.0385,VALID,-0.101885,VALID,20.7239,VALID,320,VALID,0.615699,
2005-06-15, 00:26:00,VALID,916.644,VALID,0,VALID,94.9901,VALID,-0.0849042,VALID,20.7433,VALID,10,VALID,0.64098,
2005-06-15, 00:27:01,VALID,916.619,VALID,0,VALID,94.7282,VALID,-0.0849042,VALID,20.7463,VALID,343,VALID,0.991071,
2005-06-15, 00:28:00,VALID,916.609,VALID,0,VALID,94.4573,VALID,-0.101885,VALID,20.7657,VALID,341,VALID,0.710938,
2005-06-15, 00:29:01,VALID,916.601,VALID,0,VALID,94.3429,VALID,-0.0679233,VALID,20.802,VALID,329,VALID,0.590376,
2005-06-15, 00:30:01,VALID,916.611,VALID,0,VALID,94.2971,VALID,-0.118866,VALID,20.8343,VALID,353,VALID,0.820499,
2005-06-15, 00:31:00,VALID,916.615,VALID,0,VALID,94.1356,VALID,-0.0339617,VALID,20.8461,VALID,345,VALID,1.09695,
2005-06-15, 00:32:00,VALID,916.614,VALID,0,VALID,93.9601,VALID,0,VALID,20.8384,VALID,2,VALID,1.2184,
2005-06-15, 00:33:00,VALID,916.615,VALID,0,VALID,93.6842,VALID,0.0169808,VALID,20.868,VALID,5,VALID,1.33346,
2005-06-15, 00:34:00,VALID,916.604,VALID,0,VALID,93.5939,VALID,0.0169808,VALID,20.8645,VALID,13,VALID,1.48274,
2005-06-15, 00:35:00,VALID,916.599,VALID,0,VALID,93.4896,VALID,0,VALID,20.8674,VALID,18,VALID,1.66536,
2005-06-15, 00:36:00,VALID,916.565,VALID,0,VALID,93.3994,VALID,0.0169808,VALID,20.8806,VALID,10,VALID,1.57203,
2005-06-15, 00:37:00,VALID,916.576,VALID,0,VALID,93.4248,VALID,0,VALID,20.89,VALID,352,VALID,1.17168,
2005-06-15, 00:38:01,VALID,916.557,VALID,0,VALID,93.4184,VALID,0.0169808,VALID,20.89,VALID,352,VALID,1.1978,
2005-06-15, 00:39:00,VALID,916.523,VALID,0,VALID,93.4935,VALID,0,VALID,20.8642,VALID,12,VALID,1.50019,
2005-06-15, 00:40:00,VALID,916.509,VALID,0,VALID,93.5634,VALID,-0.0169808,VALID,20.8553,VALID,12,VALID,1.09128,
2005-06-15, 00:41:00,VALID,916.503,VALID,0,VALID,93.646,VALID,0,VALID,20.8451,VALID,15,VALID,0.99907,
2005-06-15, 00:42:00,VALID,916.488,VALID,0,VALID,93.6206,VALID,0,VALID,20.8419,VALID,18,VALID,0.888263,
2005-06-15, 00:43:00,VALID,916.484,VALID,0,VALID,93.599,VALID,0,VALID,20.8257,VALID,34,VALID,1.09233,
2005-06-15, 00:44:00,VALID,916.463,VALID,0,VALID,93.6715,VALID,0,VALID,20.823,VALID,28,VALID,1.08516,
2005-06-15, 00:45:01,VALID,916.445,VALID,0,VALID,93.4388,VALID,0,VALID,20.8061,VALID,25,VALID,1.03672,
2005-06-15, 00:46:00,VALID,916.421,VALID,0,VALID,93.4083,VALID,0,VALID,20.8421,VALID,43,VALID,0.985764,
2005-06-15, 00:47:00,VALID,916.386,VALID,0,VALID,93.2582,VALID,0.0849042,VALID,20.8545,VALID,51,VALID,1.1356,
2005-06-15, 00:48:00,VALID,916.347,VALID,0,VALID,93.2239,VALID,0.101885,VALID,20.8543,VALID,69,VALID,1.23864,
2005-06-15, 00:49:01,VALID,916.336,VALID,0,VALID,93.4083,VALID,0.0849042,VALID,20.844,VALID,55,VALID,0.935352,
2005-06-15, 00:50:00,VALID,916.308,VALID,0,VALID,93.4617,VALID,0.0679233,VALID,20.8048,VALID,67,VALID,0.720833,
2005-06-15, 00:51:01,VALID,916.264,VALID,0,VALID,93.7122,VALID,0.101885,VALID,20.77,VALID,75,VALID,0.786106,
2005-06-15, 00:52:01,VALID,916.257,VALID,0,VALID,94.0479,VALID,0.101885,VALID,20.7154,VALID,75,VALID,0.966264,
2005-06-15, 00:53:01,VALID,916.224,VALID,0,VALID,94.292,VALID,0.0849042,VALID,20.6605,VALID,73,VALID,1.0181,
2005-06-15, 00:54:00,VALID,916.203,VALID,0,VALID,94.4268,VALID,0.0849042,VALID,20.6379,VALID,52,VALID,1.03906,
2005-06-15, 00:55:00,VALID,916.181,VALID,0,VALID,94.5184,VALID,0.101885,VALID,20.6148,VALID,57,VALID,0.845052,
2005-06-15, 00:56:00,VALID,916.15,VALID,0,VALID,94.6989,VALID,0.101885,VALID,20.6021,VALID,83,VALID,0.938953,
2005-06-15, 00:57:01,VALID,916.125,VALID,0,VALID,95.1033,VALID,0.0679233,VALID,20.5666,VALID,78,VALID,0.853516,
2005-06-15, 00:58:00,VALID,916.131,VALID,0,VALID,95.4899,VALID,0.0679233,VALID,20.5243,VALID,67,VALID,0.544457,
2005-06-15, 00:59:01,VALID,916.096,VALID,0,VALID,96.0176,VALID,0.101885,VALID,20.4926,VALID,65,VALID,0.826672,
2005-06-15, 01:00:01,VALID,916.066,VALID,0,VALID,96.4436,VALID,0.0849042,VALID,20.4538,VALID,65,VALID,0.641768,
2005-06-15, 01:01:00,VALID,916.037,VALID,0,VALID,96.6839,VALID,0.0169808,VALID,20.4126,VALID,64,VALID,0.304497,
2005-06-15, 01:02:01,VALID,915.995,VALID,0,VALID,96.9179,VALID,-0.0339617,VALID,20.3744,VALID,65,VALID,0.412791,
2005-06-15, 01:03:00,VALID,915.956,VALID,0,VALID,97.2231,VALID,-0.0169808,VALID,20.3555,VALID,65,VALID,0.410633,
2005-06-15, 01:04:00,VALID,915.917,VALID,0,VALID,97.4367,VALID,-0.0339617,VALID,20.3294,VALID,64,VALID,0.260764,
2005-06-15, 01:05:01,VALID,915.887,VALID,0,VALID,97.4698,VALID,-0.0339617,VALID,20.313,VALID,64,VALID,0.204613,
2005-06-15, 01:06:01,VALID,915.864,VALID,0,VALID,97.1989,VALID,-0.0169808,VALID,20.2939,VALID,64,VALID,0.00351562,
2005-06-15, 01:07:00,VALID,915.854,VALID,0,VALID,97.0527,VALID,0,VALID,20.2715,VALID,64,VALID,0.138672,
2005-06-15, 01:08:00,VALID,915.841,VALID,0,VALID,97.1341,VALID,-0.0339617,VALID,20.242,VALID,61,VALID,0.422894,
2005-06-15, 01:09:01,VALID,915.827,VALID,0,VALID,96.8607,VALID,0,VALID,20.2352,VALID,15,VALID,0.612909,
2005-06-15, 01:10:00,VALID,915.829,VALID,0,VALID,96.647,VALID,-0.0169808,VALID,20.239,VALID,12,VALID,0.540698,
2005-06-15, 01:11:00,VALID,915.818,VALID,0,VALID,96.6559,VALID,-0.0509425,VALID,20.2323,VALID,12,VALID,0.345796,
2005-06-15, 01:12:00,VALID,915.816,VALID,0,VALID,96.6979,VALID,-0.0509425,VALID,20.2492,VALID,12,VALID,0.470348,
2005-06-15, 01:13:00,VALID,915.82,VALID,0,VALID,96.4283,VALID,-0.0509425,VALID,20.2489,VALID,10,VALID,0.553416,
2005-06-15, 01:14:00,VALID,915.83,VALID,0,VALID,96.2045,VALID,-0.0339617,VALID,20.2653,VALID,10,VALID,0.515262,
2005-06-15, 01:15:01,VALID,915.844,VALID,0,VALID,96.0405,VALID,-0.0339617,VALID,20.3108,VALID,10,VALID,0.137074,
2005-06-15, 01:16:00,VALID,915.863,VALID,0,VALID,95.893,VALID,-0.0169808,VALID,20.3388,VALID,10,VALID,0,
2005-06-15, 01:17:00,VALID,915.874,VALID,0,VALID,95.7417,VALID,-0.0339617,VALID,20.3813,VALID,10,VALID,0,
2005-06-15, 01:18:00,VALID,915.892,VALID,0,VALID,95.5077,VALID,-0.0169808,VALID,20.3972,VALID,10,VALID,0,
2005-06-15, 01:19:00,VALID,915.9,VALID,0,VALID,95.4136,VALID,-0.0169808,VALID,20.3846,VALID,10,VALID,0,
2005-06-15, 01:20:01,VALID,915.901,VALID,0,VALID,95.4301,VALID,0,VALID,20.3714,VALID,10,VALID,0.119922,
2005-06-15, 01:21:00,VALID,915.894,VALID,0,VALID,95.4403,VALID,0,VALID,20.3684,VALID,46,VALID,0.620276,
2005-06-15, 01:22:01,VALID,915.883,VALID,0,VALID,95.4238,VALID,0,VALID,20.3684,VALID,60,VALID,0.689583,
2005-06-15, 01:23:00,VALID,915.881,VALID,0,VALID,95.3742,VALID,0,VALID,20.3649,VALID,59,VALID,0.755145,
2005-06-15, 01:24:00,VALID,915.89,VALID,0,VALID,95.3856,VALID,-0.0339617,VALID,20.3587,VALID,59,VALID,0.639776,
2005-06-15, 01:25:00,VALID,915.888,VALID,0,VALID,95.3983,VALID,0,VALID,20.3846,VALID,59,VALID,0.493459,
2005-06-15, 01:26:00,VALID,915.891,VALID,0,VALID,95.2216,VALID,-0.0169808,VALID,20.4166,VALID,59,VALID,0.451527,
2005-06-15, 01:27:00,VALID,915.896,VALID,0,VALID,94.9507,VALID,-0.0339617,VALID,20.4395,VALID,57,VALID,0.480196,
2005-06-15, 01:28:00,VALID,915.896,VALID,0,VALID,94.8922,VALID,-0.0339617,VALID,20.4631,VALID,51,VALID,0.611374,
2005-06-15, 01:29:00,VALID,915.894,VALID,0,VALID,94.9304,VALID,-0.0509425,VALID,20.4454,VALID,51,VALID,0.441211,
2005-06-15, 01:30:00,VALID,915.906,VALID,0,VALID,94.9367,VALID,-0.0339617,VALID,20.4459,VALID,68,VALID,0.700639,
2005-06-15, 01:31:00,VALID,915.904,VALID,0,VALID,95.0194,VALID,-0.0509425,VALID,20.4335,VALID,96,VALID,0.868862,
2005-06-15, 01:32:00,VALID,915.896,VALID,0,VALID,95.3691,VALID,-0.0339617,VALID,20.4136,VALID,105,VALID,1.16897,
2005-06-15, 01:33:00,VALID,915.882,VALID,0,VALID,95.7989,VALID,-0.0169808,VALID,20.3875,VALID,118,VALID,0.987201,
2005-06-15, 01:34:00,VALID,915.865,VALID,0,VALID,96.0456,VALID,-0.0169808,VALID,20.3518,VALID,129,VALID,0.840892,
2005-06-15, 01:35:01,VALID,915.865,VALID,0,VALID,96.3101,VALID,-0.0339617,VALID,20.3304,VALID,129,VALID,0.667146,
2005-06-15, 01:36:00,VALID,915.855,VALID,0,VALID,96.4919,VALID,-0.0339617,VALID,20.3011,VALID,135,VALID,0.711806,
2005-06-15, 01:37:01,VALID,915.841,VALID,0,VALID,96.6547,VALID,-0.0509425,VALID,20.2812,VALID,145,VALID,0.646234,
2005-06-15, 01:38:00,VALID,915.837,VALID,0,VALID,96.7615,VALID,0,VALID,20.2691,VALID,147,VALID,0.827195,
2005-06-15, 01:39:01,VALID,915.814,VALID,0,VALID,96.8009,VALID,-0.0509425,VALID,20.2656,VALID,147,VALID,0.600391,
2005-06-15, 01:40:01,VALID,915.771,VALID,0,VALID,96.7958,VALID,-0.0339617,VALID,20.2591,VALID,145,VALID,0.52793,
2005-06-15, 01:41:01,VALID,915.75,VALID,0,VALID,96.8594,VALID,-0.0679233,VALID,20.2559,VALID,144,VALID,0.567951,
2005-06-15, 01:42:01,VALID,915.725,VALID,0,VALID,96.923,VALID,-0.0679233,VALID,20.2432,VALID,144,VALID,0.784489,
2005-06-15, 01:43:01,VALID,915.692,VALID,0,VALID,97.0234,VALID,-0.0509425,VALID,20.2303,VALID,144,VALID,0.733631,
2005-06-15, 01:44:00,VALID,915.671,VALID,0,VALID,97.1175,VALID,-0.0679233,VALID,20.2239,VALID,144,VALID,0.576823,
2005-06-15, 01:45:00,VALID,915.657,VALID,0,VALID,97.1188,VALID,-0.0679233,VALID,20.2112,VALID,144,VALID,0.750868,
2005-06-15, 01:46:01,VALID,915.639,VALID,0,VALID,97.2294,VALID,-0.0169808,VALID,20.1908,VALID,141,VALID,0.806548,
2005-06-15, 01:47:00,VALID,915.637,VALID,0,VALID,97.4113,VALID,0.0679233,VALID,20.1637,VALID,141,VALID,0.810785,
2005-06-15, 01:48:01,VALID,915.613,VALID,0,VALID,97.5015,VALID,0.0169808,VALID,20.1513,VALID,143,VALID,0.830171,
2005-06-15, 01:49:00,VALID,915.595,VALID,0,VALID,97.4609,VALID,0.0339617,VALID,20.164,VALID,155,VALID,0.876674,
2005-06-15, 01:50:01,VALID,915.592,VALID,0,VALID,97.3312,VALID,0.0339617,VALID,20.1841,VALID,152,VALID,0.820884,
2005-06-15, 01:51:01,VALID,915.567,VALID,0,VALID,97.2701,VALID,0,VALID,20.1809,VALID,150,VALID,0.708147,
2005-06-15, 01:52:01,VALID,915.563,VALID,0,VALID,97.2002,VALID,0.0169808,VALID,20.1804,VALID,152,VALID,0.77983,
2005-06-15, 01:53:01,VALID,915.546,VALID,0,VALID,97.1201,VALID,0.0339617,VALID,20.203,VALID,148,VALID,0.946948,
2005-06-15, 01:54:01,VALID,915.534,VALID,0,VALID,97.0896,VALID,0.0339617,VALID,20.2263,VALID,135,VALID,0.665104,
2005-06-15, 01:55:01,VALID,915.508,VALID,0,VALID,97.0107,VALID,0.0509425,VALID,20.2293,VALID,132,VALID,0.678199,
2005-06-15, 01:56:01,VALID,915.507,VALID,0,VALID,96.9382,VALID,0.0169808,VALID,20.242,VALID,130,VALID,0.736151,
2005-06-15, 01:57:01,VALID,915.484,VALID,0,VALID,96.8657,VALID,0.0509425,VALID,20.2514,VALID,111,VALID,0.50558,
2005-06-15, 01:58:01,VALID,915.468,VALID,0,VALID,96.717,VALID,0.101885,VALID,20.2675,VALID,97,VALID,0.894055,
2005-06-15, 01:59:01,VALID,915.444,VALID,0,VALID,96.7284,VALID,0.0679233,VALID,20.2613,VALID,97,VALID,0.729469,
2005-06-15, 02:00:01,VALID,915.435,VALID,0,VALID,96.7895,VALID,0.0339617,VALID,20.2618,VALID,97,VALID,0.624467,
2005-06-15, 02:01:01,VALID,915.425,VALID,0,VALID,96.839,VALID,0.0509425,VALID,20.2484,VALID,97,VALID,0.616146,
2005-06-15, 02:02:01,VALID,915.412,VALID,0,VALID,96.8136,VALID,0.0339617,VALID,20.2551,VALID,97,VALID,0.542515,
2005-06-15, 02:03:00,VALID,915.402,VALID,0,VALID,96.7691,VALID,0,VALID,20.2554,VALID,97,VALID,0.434832,
2005-06-15, 02:04:01,VALID,915.407,VALID,0,VALID,96.7348,VALID,0.0169808,VALID,20.2452,VALID,97,VALID,0.287016,
2005-06-15, 02:05:01,VALID,915.42,VALID,0,VALID,96.6483,VALID,0.0169808,VALID,20.2519,VALID,97,VALID,0.330412,
2005-06-15, 02:06:00,VALID,915.405,VALID,0,VALID,96.5631,VALID,0.0169808,VALID,20.2256,VALID,97,VALID,0.382292,
2005-06-15, 02:07:01,VALID,915.4,VALID,0,VALID,96.5288,VALID,0.0339617,VALID,20.2323,VALID,97,VALID,0.408203,
2005-06-15, 02:08:01,VALID,915.401,VALID,0,VALID,96.5021,VALID,0.0339617,VALID,20.2285,VALID,97,VALID,0.575868,
2005-06-15, 02:09:00,VALID,915.399,VALID,0,VALID,96.5122,VALID,0.0849042,VALID,20.2352,VALID,97,VALID,0.521181,
2005-06-15, 02:10:01,VALID,915.4,VALID,0,VALID,96.5148,VALID,0.0339617,VALID,20.2315,VALID,97,VALID,0.26053,
2005-06-15, 02:11:01,VALID,915.401,VALID,0,VALID,96.4715,VALID,0.0679233,VALID,20.2288,VALID,97,VALID,0.359947,
2005-06-15, 02:12:01,VALID,915.393,VALID,0,VALID,96.5707,VALID,0.0339617,VALID,20.2253,VALID,97,VALID,0.508523,
2005-06-15, 02:13:01,VALID,915.388,VALID,0,VALID,96.6598,VALID,0.0339617,VALID,20.2385,VALID,98,VALID,0.51734,
2005-06-15, 02:14:01,VALID,915.38,VALID,0,VALID,96.6992,VALID,0.0169808,VALID,20.2352,VALID,98,VALID,0.364844,
2005-06-15, 02:15:01,VALID,915.398,VALID,0,VALID,96.8073,VALID,0.0509425,VALID,20.242,VALID,98,VALID,0.0826389,
2005-06-15, 02:16:01,VALID,915.404,VALID,0,VALID,96.8454,VALID,-0.0169808,VALID,20.2395,VALID,98,VALID,0.166193,
2005-06-15, 02:17:01,VALID,915.41,VALID,0,VALID,96.792,VALID,-0.0339617,VALID,20.2467,VALID,98,VALID,0.365513,
2005-06-15, 02:18:01,VALID,915.421,VALID,0,VALID,96.7526,VALID,-0.0679233,VALID,20.2467,VALID,98,VALID,0.195313,
2005-06-15, 02:19:01,VALID,915.418,VALID,0,VALID,96.6699,VALID,-0.0339617,VALID,20.2241,VALID,135,VALID,0.496626,
2005-06-15, 02:20:01,VALID,915.438,VALID,0,VALID,96.8556,VALID,-0.0169808,VALID,20.198,VALID,235,VALID,0.351563,
2005-06-15, 02:21:01,VALID,915.439,VALID,0,VALID,97.0539,VALID,-0.0169808,VALID,20.1916,VALID,235,VALID,0.0281613,
2005-06-15, 02:22:01,VALID,915.431,VALID,0,VALID,97.0781,VALID,-0.0509425,VALID,20.1717,VALID,235,VALID,0.252308,
2005-06-15, 02:23:01,VALID,915.425,VALID,0,VALID,96.9726,VALID,-0.0679233,VALID,20.1789,VALID,235,VALID,0.41654,
2005-06-15, 02:24:01,VALID,915.397,VALID,0,VALID,96.9064,VALID,-0.0509425,VALID,20.195,VALID,235,VALID,0.40407,
2005-06-15, 02:25:01,VALID,915.375,VALID,0,VALID,96.9217,VALID,-0.0849042,VALID,20.2117,VALID,235,VALID,0.254861,
2005-06-15, 02:26:01,VALID,915.352,VALID,0,VALID,96.8823,VALID,-0.0509425,VALID,20.2047,VALID,235,VALID,0,
2005-06-15, 02:27:01,VALID,915.334,VALID,0,VALID,96.7068,VALID,-0.0509425,VALID,20.208,VALID,235,VALID,0.0990854,
2005-06-15, 02:28:01,VALID,915.308,VALID,0,VALID,96.5339,VALID,-0.101885,VALID,20.1926,VALID,235,VALID,0.369048,
2005-06-15, 02:29:01,VALID,915.284,VALID,0,VALID,96.5796,VALID,-0.101885,VALID,20.1595,VALID,235,VALID,0.471608,
2005-06-15, 02:30:00,VALID,915.276,VALID,0,VALID,96.5873,VALID,-0.0849042,VALID,20.1407,VALID,235,VALID,0.403888,
2005-06-15, 02:31:00,VALID,915.271,VALID,0,VALID,96.4932,VALID,-0.0509425,VALID,20.0979,VALID,235,VALID,0.337271,
2005-06-15, 02:32:00,VALID,915.235,VALID,0,VALID,96.717,VALID,0,VALID,20.049,VALID,235,VALID,0.316497,
2005-06-15, 02:33:00,VALID,915.229,VALID,0,VALID,96.9586,VALID,0,VALID,20.0065,VALID,235,VALID,0.40346,
2005-06-15, 02:34:00,VALID,915.209,VALID,0,VALID,97.2167,VALID,0,VALID,19.9809,VALID,235,VALID,0.262173,
2005-06-15, 02:35:00,VALID,915.209,VALID,0,VALID,97.4418,VALID,-0.0169808,VALID,19.9812,VALID,235,VALID,0.260174,
2005-06-15, 02:36:00,VALID,915.208,VALID,0,VALID,97.6274,VALID,-0.0169808,VALID,19.9846,VALID,235,VALID,0.248666,
2005-06-15, 02:37:00,VALID,915.204,VALID,0,VALID,97.6465,VALID,0,VALID,19.9774,VALID,228,VALID,0.229911,
2005-06-15, 02:38:00,VALID,915.205,VALID,0,VALID,97.6529,VALID,0,VALID,19.9744,VALID,195,VALID,0.504261,
2005-06-15, 02:39:00,VALID,915.205,VALID,0,VALID,97.7254,VALID,0,VALID,19.9747,VALID,101,VALID,0.801781,
2005-06-15, 02:40:00,VALID,915.206,VALID,0,VALID,97.5308,VALID,0,VALID,19.9586,VALID,79,VALID,0.907315,
2005-06-15, 02:41:00,VALID,915.219,VALID,0,VALID,97.5384,VALID,0,VALID,19.9156,VALID,76,VALID,0.779433,
2005-06-15, 02:42:00,VALID,915.217,VALID,0,VALID,97.6554,VALID,0,VALID,19.8972,VALID,64,VALID,0.831499,
2005-06-15, 02:43:00,VALID,915.19,VALID,0,VALID,97.7228,VALID,-0.0169808,VALID,19.8647,VALID,63,VALID,0.657522,
2005-06-15, 02:44:00,VALID,915.187,VALID,0,VALID,97.8106,VALID,0.0169808,VALID,19.8423,VALID,63,VALID,0.703506,
2005-06-15, 02:45:00,VALID,915.19,VALID,0,VALID,97.8042,VALID,-0.0169808,VALID,19.8098,VALID,63,VALID,0.759055,
2005-06-15, 02:46:00,VALID,915.183,VALID,0,VALID,98.0267,VALID,0,VALID,19.7844,VALID,62,VALID,0.948583,
2005-06-15, 02:47:00,VALID,915.172,VALID,0,VALID,98.4286,VALID,0,VALID,19.7812,VALID,62,VALID,0.971294,
2005-06-15, 02:48:00,VALID,915.176,VALID,0,VALID,98.7604,VALID,0,VALID,19.7708,VALID,62,VALID,1.02951,
2005-06-15, 02:49:00,VALID,915.175,VALID,0,VALID,98.8342,VALID,-0.0169808,VALID,19.7616,VALID,62,VALID,0.898438,
2005-06-15, 02:50:00,VALID,915.183,VALID,0,VALID,98.8876,VALID,0,VALID,19.7459,VALID,62,VALID,0.786519,
2005-06-15, 02:51:00,VALID,915.199,VALID,0,VALID,98.9512,VALID,0,VALID,19.7233,VALID,62,VALID,0.811612,
2005-06-15, 02:52:00,VALID,915.207,VALID,0,VALID,99.0097,VALID,-0.0169808,VALID,19.6938,VALID,62,VALID,0.639063,
2005-06-15, 02:53:00,VALID,915.21,VALID,0,VALID,99.0898,VALID,0,VALID,19.6811,VALID,62,VALID,0.633929,
2005-06-15, 02:54:00,VALID,915.21,VALID,0,VALID,99.1902,VALID,0,VALID,19.655,VALID,71,VALID,0.740091,
2005-06-15, 02:55:00,VALID,915.209,VALID,0,VALID,99.3543,VALID,0,VALID,19.6516,VALID,82,VALID,0.730741,
2005-06-15, 02:56:00,VALID,915.209,VALID,0,VALID,99.3975,VALID,-0.0169808,VALID,19.6488,VALID,96,VALID,0.810023,
2005-06-15, 02:57:00,VALID,915.227,VALID,0,VALID,99.4229,VALID,0.0169808,VALID,19.6486,VALID,97,VALID,0.66282,
2005-06-15, 02:58:00,VALID,915.228,VALID,0,VALID,99.4268,VALID,0,VALID,19.6225,VALID,103,VALID,0.855646,
2005-06-15, 02:59:00,VALID,915.232,VALID,0,VALID,99.5234,VALID,0,VALID,19.6262,VALID,115,VALID,0.939406,
2005-06-15, 03:00:00,VALID,915.224,VALID,0,VALID,99.6378,VALID,0,VALID,19.6225,VALID,109,VALID,1.00692,
2005-06-15, 03:01:00,VALID,915.237,VALID,0,VALID,99.7574,VALID,0,VALID,19.6255,VALID,120,VALID,0.757813,
2005-06-15, 03:02:00,VALID,915.239,VALID,0,VALID,99.84,VALID,-0.0169808,VALID,19.6419,VALID,123,VALID,0.842076,
2005-06-15, 03:03:00,VALID,915.243,VALID,0,VALID,99.8858,VALID,0.0169808,VALID,19.6679,VALID,126,VALID,0.663218,
2005-06-15, 03:04:00,VALID,915.255,VALID,0,VALID,99.868,VALID,0,VALID,19.6908,VALID,126,VALID,0.719477,
2005-06-15, 03:05:00,VALID,915.26,VALID,0,VALID,99.84,VALID,0.0339617,VALID,19.7,VALID,129,VALID,0.655859,
2005-06-15, 03:06:00,VALID,915.258,VALID,0,VALID,99.7841,VALID,0.0169808,VALID,19.7064,VALID,124,VALID,0.830859,
2005-06-15, 03:07:00,VALID,915.254,VALID,0,VALID,99.7815,VALID,0.0339617,VALID,19.7129,VALID,120,VALID,0.789825,
2005-06-15, 03:08:00,VALID,915.254,VALID,0,VALID,99.7307,VALID,0,VALID,19.736,VALID,124,VALID,0.662919,
2005-06-15, 03:09:00,VALID,915.246,VALID,0,VALID,99.6925,VALID,0.0169808,VALID,19.7358,VALID,118,VALID,0.707118,
2005-06-15, 03:10:00,VALID,915.247,VALID,0,VALID,99.6378,VALID,0.0169808,VALID,19.7484,VALID,106,VALID,1.03072,
2005-06-15, 03:11:00,VALID,915.244,VALID,0,VALID,99.5628,VALID,0.0169808,VALID,19.7683,VALID,97,VALID,1.09566,
2005-06-15, 03:12:00,VALID,915.254,VALID,0,VALID,99.5094,VALID,0,VALID,19.7877,VALID,94,VALID,1.01999,
2005-06-15, 03:13:00,VALID,915.273,VALID,0,VALID,99.4598,VALID,0,VALID,19.7869,VALID,99,VALID,0.878005,
2005-06-15, 03:14:00,VALID,915.29,VALID,0,VALID,99.3912,VALID,0,VALID,19.7974,VALID,100,VALID,0.917039,
2005-06-15, 03:15:00,VALID,915.292,VALID,0,VALID,99.2704,VALID,0.0169808,VALID,19.8038,VALID,102,VALID,1.14045,
2005-06-15, 03:16:00,VALID,915.298,VALID,0,VALID,99.0694,VALID,0,VALID,19.8068,VALID,102,VALID,0.870908,
2005-06-15, 03:17:00,VALID,915.301,VALID,0,VALID,98.8749,VALID,0,VALID,19.8162,VALID,102,VALID,0.835764,
2005-06-15, 03:18:00,VALID,915.309,VALID,0,VALID,98.7388,VALID,-0.0169808,VALID,19.8232,VALID,104,VALID,0.89117,
2005-06-15, 03:19:00,VALID,915.343,VALID,0,VALID,98.6498,VALID,0,VALID,19.82,VALID,105,VALID,0.762195,
2005-06-15, 03:20:00,VALID,915.363,VALID,0,VALID,98.6282,VALID,0,VALID,19.806,VALID,104,VALID,0.918269,
2005-06-15, 03:21:00,VALID,915.366,VALID,0,VALID,98.5277,VALID,0.0169808,VALID,19.8195,VALID,103,VALID,0.697917,
2005-06-15, 03:22:00,VALID,915.393,VALID,0,VALID,98.4883,VALID,0.0339617,VALID,19.8324,VALID,102,VALID,0.842685,
2005-06-15, 03:23:00,VALID,915.414,VALID,0,VALID,98.4667,VALID,0.0169808,VALID,19.8321,VALID,102,VALID,0.803838,
2005-06-15, 03:24:00,VALID,915.44,VALID,0,VALID,98.426,VALID,0.0169808,VALID,19.8455,VALID,105,VALID,0.767969,
2005-06-15, 03:25:00,VALID,915.458,VALID,0,VALID,98.44,VALID,0.0169808,VALID,19.8418,VALID,107,VALID,0.6875,
2005-06-15, 03:26:00,VALID,915.487,VALID,0,VALID,98.3942,VALID,0,VALID,19.8587,VALID,107,VALID,0.542878,
2005-06-15, 03:27:00,VALID,915.494,VALID,0,VALID,98.4158,VALID,0,VALID,19.8411,VALID,108,VALID,0.645952,
2005-06-15, 03:28:00,VALID,915.507,VALID,0,VALID,98.3535,VALID,0.0169808,VALID,19.8545,VALID,121,VALID,0.766927,
2005-06-15, 03:29:00,VALID,915.53,VALID,0,VALID,98.2175,VALID,0,VALID,19.8748,VALID,105,VALID,0.718023,
2005-06-15, 03:30:00,VALID,915.558,VALID,0,VALID,98.1361,VALID,0,VALID,19.884,VALID,123,VALID,0.627663,
2005-06-15, 03:31:00,VALID,915.573,VALID,0,VALID,98.0471,VALID,0,VALID,19.8972,VALID,149,VALID,0.92168,
2005-06-15, 03:32:00,VALID,915.607,VALID,0,VALID,97.9085,VALID,0,VALID,19.926,VALID,157,VALID,0.691311,
2005-06-15, 03:33:00,VALID,915.625,VALID,0,VALID,97.7673,VALID,0,VALID,19.9491,VALID,161,VALID,0.59048,
2005-06-15, 03:34:00,VALID,915.634,VALID,0,VALID,97.5956,VALID,-0.0339617,VALID,19.9618,VALID,153,VALID,0.847942,